Regional Weather Roundup
Issued by NWS Goodland, KS

Home | Current Version | Previous Version | Text Only | Print | Product List | Glossary Off
Versions: 1 2 3 4 5 6 7 8 9 10 11 12 13 14 15 16 17 18 19 20 21 22 23 24 25 26 27 28 29 30 31 32 33 34 35 36 37 38 39 40 41 42 43 44 45 46 47 48 49 50

000
ASUS43 KGLD 212059
RWRGLD

GOODLAND FORECAST AREA HOURLY WEATHER ROUNDUP
NATIONAL WEATHER SERVICE GOODLAND KS
300 PM MDT SUN SEP 21 2014

...OFFICIAL OBSERVATIONS...

CITY           SKY/WX    TMP DP  RH WIND       PRES   REMARKS
GOODLAND KS    PTSUNNY   74  37  26 SE8       30.31F
HILL CITY KS   SUNNY     80  38  22 NE9G17    30.26F
IMPERIAL NEB   MOSUNNY   76  37  24 E7        30.30F
MCCOOK NEB     SUNNY     78  39  24 NE8       30.28F
AKRON CO       PTSUNNY   73  41  31 SE16G24   30.31F
BURLINGTON CO  MOSUNNY   73  36  25 E9G20     30.32F
LIMON CO       SUNNY     73  44  35 S20G25    30.34F
$$

...UNOFFICIAL OBSERVATIONS...

CITY           SKY/WX    TMP DP  RH WIND       PRES   REMARKS
COLBY KS       MOSUNNY   79  45  29 N8        30.30F
GOVE KS          N/A     77  32  19 MISG        N/A
NORTON KS      SUNNY     79  28  15 N9        30.26S
SHARON SPRINGS   N/A     75  42  31 E7          N/A
WAKEENEY KS      N/A     80  38  22 MISG        N/A
TRENTON NEB      N/A     75  32  20 E7          N/A
KIT CARSON CO    N/A     74  42  31 N7G16       N/A
YUMA CO          N/A     70  42  35 SE7G15      N/A
$$



USA.gov is the U.S. government's official web portal to all federal, state and local government web resources and services.